Temperature
20 20 20 20 18 18 19 19 20 20 20 20 19 19 18 18 18 17 17 17 17 17 17 17 17 17 17 17 17 17 17 17 17 17 17 17 17 17 17 17 17 17 17 17 17 17 17 17 17
20 20 20 20 18 18 19 19 19 20 20 20 19 19 18 17 17 17 17 17 17 17 17 17 17 17 17 17 17 17 17 17 17 16 16 16 16 16 16 16 17 17 17 17 17 17 17 17 17
20 20 20 17 18 19 19 19 19 20 20 20 19 18 18 17 17 17 17 17 17 17 17 17 17 17 17 17 17 17 17 17 17 17 16 16 16 16 16 16 16 17 17 17 17 17 17 17 17
21 20 20 18 19 19 19 19 20 20 20 20 19 18 17 17 17 17 17 17 17 17 17 17 17 17 17 17 17 17 17 16 16 16 16 16 16 16 16 16 16 17 17 17 17 17 17 17 17
21 20 18 18 19 20 19 20 20 20 19 19 18 17 17 17 17 17 17 17 18 17 17 17 17 17 17 17 17 17 16 16 16 16 16 16 16 16 16 16 16 16 16 16 16 16 16 17 17
21 19 18 18 19 20 19 20 20 19 19 18 18 17 17 17 17 17 17 17 17 17 17 17 17 17 17 17 17 16 16 16 16 16 16 16 16 16 16 16 16 16 16 16 16 16 16 16 16
20 18 18 19 19 19 20 20 20 19 19 18 18 17 17 17 17 17 17 17 17 17 17 17 17 17 17 17 16 16 16 16 16 16 16 16 16 16 16 16 16 16 16 16 16 16 16 16 16
21 17 19 18 19 19 20 20 20 19 19 18 18 17 17 17 17 17 17 17 17 17 17 17 17 17 17 16 16 16 16 16 16 16 16 16 16 16 16 16 16 16 16 16 16 16 16 16 16
21 17 18 19 19 19 20 20 19 19 19 18 18 18 18 17 17 17 17 17 17 17 17 17 17 17 16 16 16 16 16 16 16 16 16 16 16 16 16 16 16 16 16 16 16 16 16 16 16
20 17 19 19 19 19 20 20 19 18 18 17 18 18 17 17 17 17 17 17 17 17 17 17 17 17 16 16 16 16 16 16 16 16 16 16 16 16 16 16 16 16 16 16 16 16 16 16 16
20 19 19 20 20 20 20 20 19 18 17 17 17 17 17 17 17 17 17 17 17 17 17 17 17 17 17 16 16 16 16 16 16 16 16 16 16 16 16 16 16 16 16 16 16 16 16 16 16
20 19 20 20 21 20 20 19 19 18 18 18 18 18 17 17 17 17 17 17 17 17 17 17 17 17 17 16 16 16 16 16 16 16 16 16 16 16 16 16 16 16 16 16 16 16 16 16 16
19 19 20 20 20 20 20 19 18 18 18 18 18 17 17 17 17 17 17 18 18 17 17 17 17 17 17 16 16 16 16 16 16 16 16 16 16 16 16 16 16 16 16 16 16 16 16 16 16
19 19 20 20 20 20 19 19 18 17 18 18 17 17 18 18 18 17 17 18 18 17 17 17 17 17 17 17 16 16 16 16 16 16 16 16 16 16 16 16 16 16 16 16 16 16 16 16 16
20 19 19 19 20 19 19 18 18 18 18 18 17 18 18 18 18 18 18 18 18 18 17 17 17 17 17 17 16 16 16 16 16 16 16 16 16 16 16 16 16 16 16 16 16 16 16 15 15
19 18 18 19 19 19 19 17 17 18 18 17 18 18 18 18 18 18 18 18 18 18 17 17 17 17 17 17 16 16 16 16 16 16 16 16 16 16 16 16 16 16 16 16 16 16 15 15 15
18 17 18 18 19 19 18 17 17 18 18 17 18 18 18 18 18 18 18 18 18 18 17 17 17 17 17 17 16 16 16 16 16 16 16 16 16 16 16 16 16 16 16 16 16 15 15 15 15
18 18 18 18 19 19 18 17 17 18 18 17 18 18 18 18 18 18 18 18 18 18 18 17 17 17 17 17 16 16 16 16 16 16 16 16 16 16 16 16 16 16 16 16 15 15 15 15 15
19 18 18 18 19 19 18 17 17 17 17 17 18 18 18 18 18 18 18 18 18 18 18 17 17 17 17 17 16 16 16 16 16 16 16 16 16 16 16 16 16 16 15 15 15 15 15 15 15
19 18 18 18 19 19 18 18 17 17 17 18 18 18 18 18 18 18 18 18 18 18 18 17 17 17 17 17 16 16 16 16 16 16 16 16 16 16 16 16 16 16 15 15 15 15 15 15 15
19 18 18 18 19 19 18 17 17 17 18 18 18 18 18 18 18 18 18 18 18 18 18 18 17 17 17 17 16 16 16 16 16 16 16 16 16 16 16 16 16 15 15 15 15 15 15 15 15
19 20 19 19 18 17 18 16 17 17 17 17 18 18 18 18 18 18 18 18 18 18 18 18 17 17 17 17 17 16 16 16 16 16 16 16 16 16 15 16 16 15 15 15 15 15 15 15 15
19 20 19 19 18 17 17 17 17 17 17 17 18 18 19 19 19 19 18 18 18 18 18 18 17 17 17 17 17 16 16 16 16 16 16 16 16 15 15 15 15 15 15 15 15 15 15 15 15
20 19 18 17 17 17 18 17 17 16 17 18 18 18 19 19 19 19 19 18 18 18 18 18 17 17 17 17 17 16 16 16 16 16 16 16 16 16 15 15 15 15 15 15 15 15 15 15 15
19 17 17 17 16 17 18 18 18 18 19 19 19 19 19 19 19 19 18 18 18 18 18 18 17 17 17 17 17 16 16 16 16 16 16 16 16 16 15 15 15 15 15 15 15 15 15 15 15
19 17 17 17 17 17 18 18 19 20 20 20 20 20 19 19 19 19 19 19 18 18 18 18 17 17 17 17 17 16 16 16 16 16 16 16 16 16 15 15 15 15 15 15 15 15 15 15 15
19 18 18 17 18 17 18 19 20 20 20 19 19 19 19 19 19 19 19 19 19 18 18 18 17 17 17 17 17 16 16 16 16 16 16 16 16 16 16 15 15 15 15 15 15 15 15 15 15
20 19 17 18 18 17 18 19 18 19 19 19 19 19 19 19 19 19 19 19 19 18 18 18 18 17 17 17 17 16 16 16 16 16 16 16 16 16 16 15 15 15 15 15 15 15 15 15 15
20 19 18 17 17 17 17 18 20 19 19 19 19 20 20 19 19 19 19 19 19 18 18 18 18 17 17 17 16 16 16 16 16 16 16 16 16 16 15 15 15 15 15 15 15 15 15 15 14
20 20 18 17 17 17 16 17 20 20 20 20 20 20 20 20 20 19 19 19 19 18 18 18 17 17 17 17 16 16 16 16 16 16 16 16 16 16 15 15 15 15 15 15 15 15 15 14 14
Wind_Speed
3 2 2 3 4 4 3 2 2 3 4 5 8 9 8 6 4 6 3 7 9 7 8 10 12 13 13 13 13 13 13 13 13 12 12 12 11 11 11 10 10 9 9 9 8 8 7 8 7
1 1 3 4 4 3 2 1 4 4 5 6 8 8 8 7 5 6 4 7 9 9 9 11 13 13 13 13 13 13 13 12 12 12 11 11 11 10 10 10 9 9 8 8 8 7 7 7 6
1 1 3 3 3 3 4 2 4 5 5 4 5 6 5 4 4 3 6 8 9 9 10 12 14 14 13 13 13 13 12 12 11 11 10 10 10 9 9 9 9 8 8 8 7 6 6 6 6
2 4 4 4 4 1 5 4 5 7 5 6 7 6 4 3 3 6 9 9 10 8 10 13 14 14 13 13 12 12 12 11 11 10 9 9 9 8 8 8 8 7 7 7 6 6 6 6 7
3 4 4 3 2 2 4 5 5 6 4 6 7 7 4 3 8 10 10 10 10 8 10 12 14 13 13 12 12 11 11 10 10 9 9 8 8 8 8 7 7 6 6 6 6 6 6 6 6
4 4 4 2 2 3 3 4 7 9 8 8 8 7 3 4 8 9 10 9 9 8 9 11 13 13 12 11 11 10 9 9 8 8 7 7 7 7 6 6 6 6 5 5 5 5 6 6 6
4 4 3 3 3 3 3 3 6 7 7 4 5 6 4 4 6 8 9 9 8 8 8 8 9 11 11 10 9 9 8 6 6 5 5 5 4 5 5 5 5 5 5 4 4 5 5 6 7
4 4 3 2 3 3 2 4 5 6 6 4 4 7 6 5 7 9 9 8 8 7 6 7 7 8 8 7 7 6 5 4 3 3 3 2 2 2 3 3 3 4 4 3 3 4 4 6 7
4 5 2 1 3 3 4 6 4 5 7 4 3 5 7 9 9 10 8 7 6 6 5 5 6 6 6 5 4 3 2 1 1 1 1 1 1 1 1 1 1 2 3 3 2 3 4 6 7
4 4 2 2 4 5 6 7 5 5 7 5 7 8 10 9 10 9 8 8 7 7 5 4 5 5 5 3 2 1 1 1 1 1 1 1 1 1 1 1 2 3 3 4 3 3 5 6 7
3 3 2 4 4 6 6 6 4 8 6 6 10 11 10 9 8 7 7 7 7 7 6 5 4 5 4 2 2 1 1 2 2 2 1 2 2 1 1 2 3 4 4 4 5 5 6 6 6
5 4 4 3 4 5 5 6 6 6 5 7 10 11 10 9 8 7 7 6 6 6 6 5 5 4 4 4 2 2 1 2 3 3 3 4 3 2 1 1 2 3 3 3 4 4 5 6 7
6 4 5 5 7 8 9 8 7 6 7 9 10 10 9 8 6 5 5 6 6 6 5 5 5 4 4 4 3 3 2 3 5 6 5 6 3 2 1 2 3 4 4 5 4 5 6 6 6
5 6 5 5 6 6 9 6 6 6 9 11 10 9 8 7 7 6 5 5 6 6 5 5 6 5 5 4 3 3 4 5 7 6 6 6 6 4 3 3 4 4 5 6 6 6 5 4 5
6 7 4 2 4 4 8 5 3 8 10 11 10 8 7 6 6 8 8 7 7 7 6 6 6 6 6 5 4 4 5 7 6 6 8 7 7 6 5 3 3 4 6 7 7 6 6 4 5
4 4 1 1 3 3 6 4 4 8 10 10 8 7 6 6 7 8 8 7 7 7 7 6 8 7 6 5 5 5 7 7 6 8 8 8 8 8 6 4 3 5 6 5 4 4 5 4 4
2 2 3 2 3 3 4 4 5 7 10 9 8 7 7 6 6 7 8 8 7 8 8 7 7 7 6 6 6 6 7 6 7 8 7 8 8 8 7 5 4 6 5 4 4 4 3 4 4
4 3 3 3 2 4 4 4 7 8 9 9 8 7 7 7 7 7 7 8 7 7 8 8 7 6 6 5 5 4 5 4 6 7 7 8 8 8 8 5 5 7 5 4 4 4 4 3 3
5 4 3 2 2 4 4 5 7 8 8 9 8 8 8 7 6 6 7 7 7 6 7 7 6 5 5 4 3 3 2 2 3 4 7 7 7 7 7 4 4 4 4 4 4 3 5 4 3
4 4 2 1 1 3 4 4 6 9 10 11 11 10 10 7 5 6 6 6 7 7 7 7 7 6 5 4 3 3 2 1 1 2 5 7 7 7 6 5 3 3 4 5 4 3 3 2 2
3 5 5 4 1 2 3 1 3 5 6 8 10 10 10 11 10 9 8 7 7 8 8 8 7 6 5 5 4 4 4 3 3 3 3 4 6 7 7 6 5 4 4 3 3 3 4 2 1
3 4 6 6 4 2 3 2 6 7 7 10 11 11 11 11 10 10 9 8 8 8 8 8 7 6 5 6 6 5 3 2 1 0 1 2 5 6 6 6 5 4 3 3 3 3 3 3 1
4 4 4 3 3 1 2 2 5 5 9 13 13 13 13 12 12 12 11 10 9 8 8 8 7 6 6 6 6 6 4 2 1 1 2 2 3 4 5 5 5 4 3 3 3 4 4 3 3
5 4 3 3 3 1 5 5 5 6 11 12 14 13 13 12 12 12 10 9 7 7 7 7 7 5 5 6 6 6 6 5 4 2 2 1 2 2 3 4 4 4 3 3 3 3 4 4 4
5 5 3 3 2 4 3 4 7 9 10 13 15 15 13 13 13 12 11 10 9 8 8 8 8 6 5 5 5 5 6 5 5 4 3 2 1 1 1 2 2 2 3 4 4 3 3 3 4
3 6 5 3 3 3 1 4 6 6 7 10 12 12 12 13 13 13 13 12 10 10 10 9 9 7 6 5 4 4 5 4 3 4 4 3 2 2 1 2 3 3 4 4 4 3 2 3 4
4 3 5 4 1 1 3 4 5 3 3 7 10 11 13 14 14 14 13 12 11 11 10 10 10 8 6 6 5 4 4 4 4 4 3 3 2 2 2 2 2 3 3 4 4 3 2 3 3
5 5 4 3 2 0 3 3 3 3 3 6 10 12 13 12 13 14 13 12 11 11 9 9 9 9 7 6 5 4 4 4 4 4 4 3 3 2 3 2 2 2 3 3 3 2 2 3 2
2 2 3 3 4 4 2 6 5 7 7 8 11 13 14 14 14 14 13 12 11 10 9 9 8 7 6 6 5 5 4 4 4 3 3 3 3 3 3 3 3 3 3 3 3 2 3 3 2
5 5 6 4 2 3 3 6 7 7 7 7 9 11 12 13 13 13 13 11 10 10 10 10 9 8 7 7 6 5 4 4 4 3 3 3 3 3 3 3 3 3 2 3 3 3 3 3 2
Wind_Direction
306 336 81 59 53 54 65 25 81 69 63 64 76 83 82 62 84 121 148 135 127 126 118 114 113 108 105 101 99 98 96 94 93 91 90 89 87 86 84 83 83 82 81 80 79 80 84 83 78
326 48 63 57 78 81 64 53 82 98 127 120 82 77 76 70 75 103 120 135 132 129 122 118 114 110 107 103 100 99 99 97 96 93 91 89 86 84 83 84 83 82 82 83 83 84 84 80 74
308 106 82 68 88 134 136 148 124 106 111 104 84 60 68 91 94 113 143 139 129 123 123 123 117 112 108 104 101 99 99 98 97 96 93 90 88 86 85 85 82 83 82 83 84 83 80 77 70
66 51 60 72 77 122 144 154 130 109 75 69 95 72 63 63 107 130 136 133 123 120 124 123 117 113 109 106 103 101 100 99 98 96 93 92 89 86 85 83 84 83 82 82 83 80 76 71 65
70 74 63 61 70 88 115 128 118 99 81 81 95 93 66 39 113 126 133 131 125 120 121 121 117 113 109 108 107 104 102 99 97 94 92 91 88 85 85 84 85 85 83 83 81 76 72 68 62
57 67 82 91 92 92 97 107 99 92 103 102 96 101 89 115 123 133 134 133 128 124 124 124 122 118 114 112 110 108 106 101 98 95 93 91 87 87 85 86 84 83 81 79 78 72 68 67 64
106 88 103 122 108 90 106 104 100 111 109 103 113 101 115 128 138 136 131 128 124 126 128 127 125 123 122 121 117 115 113 109 103 99 97 97 94 94 94 91 88 84 81 78 75 70 68 60 62
127 100 73 84 108 107 122 102 97 104 103 108 106 125 148 160 134 121 120 122 127 129 134 136 132 129 130 129 129 128 123 118 112 102 99 103 93 92 92 97 90 83 76 68 64 63 55 49 57
89 79 87 143 133 134 124 101 75 69 88 68 68 117 137 134 121 117 113 111 124 135 145 148 144 141 145 150 138 132 120 109 94 75 69 66 13 358 340 83 73 59 55 49 43 42 41 46 54
78 108 159 164 142 137 121 115 122 96 83 81 89 97 115 120 124 125 128 133 140 152 163 165 161 162 167 162 140 119 94 63 31 357 355 7 236 238 263 332 13 28 35 33 36 39 36 52 55
90 124 115 84 107 122 119 106 102 117 109 140 138 136 132 126 129 137 146 152 158 162 162 169 171 163 155 143 137 112 39 25 10 353 32 80 95 60 42 17 6 13 25 33 40 45 49 64 75
90 75 90 112 108 110 110 107 92 106 145 152 144 141 137 139 151 158 160 164 156 152 161 172 166 157 152 145 128 104 67 51 43 46 77 91 77 51 46 33 23 27 47 57 53 64 64 73 81
83 84 71 98 99 99 97 101 109 111 127 129 130 132 144 154 158 163 163 155 139 137 145 156 152 146 129 111 101 94 73 60 57 56 63 82 82 66 63 37 43 49 68 79 77 77 72 74 78
115 103 89 88 97 101 105 106 103 133 135 132 138 144 153 160 156 147 145 139 133 131 125 126 132 126 111 100 94 85 78 69 61 56 57 75 82 72 64 53 47 54 74 88 92 88 84 77 75
108 91 62 68 101 116 103 77 125 152 143 141 149 152 153 158 154 155 158 153 143 132 123 120 120 103 101 97 92 83 75 69 60 56 61 73 77 74 67 58 48 45 74 85 85 78 75 76 72
85 86 91 243 141 139 117 151 185 158 149 149 157 158 157 165 164 165 161 152 140 128 118 113 116 104 96 93 88 83 77 71 60 60 63 68 66 72 73 64 52 59 75 81 84 78 78 71 70
65 134 169 207 177 152 131 170 191 168 158 161 167 169 165 163 160 165 160 151 145 135 123 112 110 107 102 91 82 78 76 67 61 62 60 62 65 73 76 66 61 72 74 72 87 76 89 89 83
177 167 177 192 204 148 146 173 174 172 166 168 170 174 172 171 171 169 160 152 147 135 127 125 117 114 108 91 77 63 55 47 51 55 59 62 66 74 77 72 63 72 72 61 73 81 72 84 90
158 149 167 207 191 152 163 178 188 179 177 178 181 185 190 187 187 167 156 146 139 135 135 135 131 130 119 105 99 88 66 42 37 44 56 61 66 70 75 76 66 71 77 79 85 93 78 63 77
141 134 157 155 170 149 166 196 202 187 192 191 188 192 194 192 188 173 156 152 152 154 150 144 147 144 135 132 134 132 126 98 59 29 41 52 60 64 76 80 76 75 81 73 70 88 92 64 63
154 166 175 169 139 64 113 289 230 216 200 200 198 195 194 192 186 179 167 166 159 157 160 158 160 148 140 132 111 87 65 46 31 27 24 31 60 69 81 85 87 80 84 88 79 96 113 116 31
182 188 159 153 133 219 175 228 246 214 205 205 204 197 198 194 186 180 173 171 168 170 164 157 157 150 144 133 128 129 130 140 188 178 37 34 54 67 83 86 87 85 83 88 87 91 100 115 98
175 165 153 160 151 174 205 190 272 195 213 215 208 199 195 190 186 181 177 176 172 168 161 159 153 153 149 139 138 135 136 154 143 102 76 49 37 57 79 85 84 87 87 90 88 88 86 97 111
127 94 70 60 79 272 217 186 262 208 213 210 206 200 194 187 185 183 178 167 163 157 154 153 151 156 153 144 142 144 147 146 134 130 118 66 37 31 60 83 83 89 91 94 96 95 93 94 95
93 92 51 13 358 261 214 186 250 231 212 202 197 196 191 183 181 180 176 170 166 160 159 159 154 161 162 153 154 155 156 153 156 162 156 136 98 50 29 74 92 96 105 106 101 89 84 90 95
174 142 154 185 223 279 312 230 263 255 206 191 188 186 181 181 181 182 182 177 172 169 165 162 161 164 166 158 157 153 151 149 157 161 159 161 170 186 167 110 107 110 111 109 105 96 93 90 96
153 190 182 153 197 295 299 290 318 15 130 167 174 176 181 183 183 184 184 180 176 173 170 169 166 166 169 162 154 153 152 150 153 155 151 158 175 175 149 131 109 103 107 107 103 95 96 96 92
167 162 110 128 141 298 305 289 258 245 198 183 181 187 190 184 183 184 184 183 179 175 172 167 164 166 165 162 162 162 160 157 150 141 151 162 170 150 133 127 114 94 88 96 98 93 103 101 86
173 156 140 136 155 156 230 274 237 213 207 196 195 193 190 186 183 182 182 182 176 172 169 167 168 164 164 166 163 160 162 156 143 146 162 164 152 143 144 143 127 110 95 94 101 103 110 107 91
181 183 153 151 199 164 175 264 270 219 208 197 196 196 190 185 182 180 178 174 173 175 174 172 172 170 174 172 163 168 164 153 150 156 163 153 146 144 145 142 134 132 121 112 111 109 110 118 113
Height
1513 1512 1512 1513 1516 1524 1528 1524 1519 1520 1521 1522 1522 1522 1525 1529 1533 1540 1538 1537 1538 1539 1539 1540 1540 1540 1540 1540 1540 1540 1540 1540 1540 1540 1540 1540 1540 1540 1539 1539 1539 1538 1538 1538 1538 1538 1538 1538 1538
1513 1513 1514 1514 1522 1533 1532 1524 1522 1521 1522 1523 1523 1525 1527 1531 1533 1535 1536 1538 1539 1540 1540 1540 1540 1541 1541 1541 1541 1541 1541 1541 1541 1541 1541 1541 1541 1540 1540 1540 1540 1539 1539 1539 1538 1538 1538 1539 1539
1513 1513 1515 1517 1525 1531 1529 1524 1522 1521 1522 1522 1525 1528 1530 1534 1535 1536 1537 1538 1540 1540 1541 1541 1541 1541 1542 1542 1542 1542 1542 1542 1542 1542 1542 1542 1542 1541 1541 1541 1540 1540 1540 1540 1539 1539 1539 1540 1540
1514 1515 1516 1522 1526 1523 1522 1522 1520 1521 1523 1524 1526 1530 1533 1536 1536 1537 1538 1539 1540 1541 1542 1542 1542 1543 1543 1543 1543 1543 1543 1543 1543 1543 1543 1543 1543 1542 1542 1541 1541 1541 1541 1541 1540 1540 1540 1540 1540
1514 1515 1521 1527 1525 1522 1521 1521 1521 1521 1524 1526 1527 1532 1535 1537 1537 1538 1539 1540 1541 1542 1543 1543 1543 1544 1544 1544 1544 1544 1544 1545 1544 1544 1544 1544 1544 1543 1543 1542 1542 1542 1542 1542 1541 1541 1541 1541 1542
1515 1516 1528 1532 1527 1523 1522 1522 1522 1524 1527 1529 1530 1533 1537 1539 1538 1539 1541 1542 1543 1544 1544 1545 1545 1545 1546 1546 1546 1546 1546 1546 1546 1546 1545 1545 1545 1544 1544 1543 1543 1543 1543 1542 1542 1542 1542 1542 1543
1516 1520 1527 1529 1528 1526 1524 1523 1524 1525 1528 1530 1531 1534 1538 1540 1540 1541 1542 1543 1544 1545 1546 1546 1547 1547 1547 1548 1548 1548 1548 1548 1548 1547 1547 1547 1546 1546 1545 1545 1545 1544 1544 1544 1544 1544 1544 1544 1544
1515 1520 1526 1528 1529 1528 1525 1525 1526 1527 1529 1531 1532 1534 1537 1540 1541 1543 1544 1545 1546 1547 1548 1548 1549 1549 1549 1549 1549 1550 1550 1549 1549 1549 1549 1548 1548 1547 1547 1547 1546 1546 1546 1545 1545 1545 1545 1545 1545
1515 1524 1531 1528 1527 1527 1525 1525 1528 1529 1529 1531 1532 1534 1537 1540 1542 1544 1545 1546 1547 1548 1549 1550 1550 1551 1551 1551 1551 1551 1551 1551 1551 1550 1550 1550 1549 1549 1548 1548 1548 1548 1547 1547 1547 1546 1546 1546 1546
1516 1527 1526 1522 1522 1524 1525 1526 1528 1531 1531 1533 1535 1536 1539 1541 1543 1544 1546 1547 1548 1549 1551 1552 1552 1552 1552 1552 1553 1553 1553 1552 1552 1551 1551 1551 1551 1550 1550 1550 1549 1549 1549 1548 1548 1548 1548 1548 1548
1517 1523 1522 1522 1522 1523 1525 1527 1529 1530 1534 1535 1535 1538 1540 1542 1544 1545 1547 1548 1549 1551 1552 1553 1553 1553 1554 1554 1554 1554 1554 1553 1553 1552 1552 1552 1552 1552 1551 1551 1551 1550 1550 1550 1549 1549 1549 1549 1549
1520 1522 1522 1523 1523 1524 1526 1528 1531 1531 1534 1535 1537 1538 1541 1543 1545 1546 1547 1549 1550 1552 1553 1554 1554 1554 1555 1555 1555 1555 1555 1554 1554 1553 1553 1553 1553 1553 1552 1552 1552 1552 1551 1551 1551 1551 1551 1550 1550
1522 1524 1524 1525 1525 1526 1528 1530 1532 1534 1535 1537 1539 1541 1542 1544 1546 1548 1549 1550 1551 1552 1553 1554 1555 1555 1556 1556 1556 1556 1556 1555 1555 1555 1554 1554 1554 1553 1553 1553 1553 1553 1553 1552 1552 1552 1552 1552 1552
1524 1524 1526 1527 1527 1528 1530 1533 1534 1537 1537 1539 1540 1542 1544 1545 1547 1548 1550 1551 1552 1553 1554 1555 1556 1556 1557 1557 1557 1557 1557 1556 1556 1555 1555 1555 1555 1554 1554 1554 1554 1554 1554 1554 1554 1553 1553 1553 1553
1524 1527 1529 1529 1529 1531 1532 1537 1536 1537 1538 1540 1542 1543 1545 1546 1547 1549 1550 1552 1553 1554 1555 1556 1557 1558 1558 1558 1558 1558 1558 1557 1557 1556 1556 1556 1555 1555 1555 1555 1554 1554 1555 1555 1555 1555 1555 1555 1555
1526 1532 1537 1532 1530 1531 1535 1543 1538 1538 1539 1540 1542 1543 1545 1546 1548 1549 1551 1552 1554 1555 1555 1557 1558 1558 1559 1559 1559 1559 1558 1558 1557 1557 1557 1556 1556 1556 1556 1555 1555 1555 1555 1556 1556 1556 1556 1556 1556
1532 1539 1539 1534 1530 1531 1534 1540 1538 1538 1539 1541 1542 1543 1545 1547 1548 1550 1551 1553 1554 1555 1556 1557 1558 1559 1559 1560 1560 1559 1559 1559 1558 1558 1557 1557 1557 1556 1556 1556 1555 1556 1556 1556 1556 1557 1557 1557 1557
1537 1538 1537 1536 1531 1531 1535 1537 1537 1538 1539 1540 1542 1543 1545 1546 1548 1550 1551 1553 1554 1556 1557 1558 1559 1559 1560 1560 1560 1560 1560 1560 1559 1559 1558 1558 1558 1557 1557 1556 1556 1556 1556 1557 1557 1557 1558 1558 1558
1528 1533 1536 1534 1529 1532 1535 1536 1536 1537 1538 1540 1541 1542 1544 1546 1548 1550 1551 1553 1555 1556 1557 1558 1559 1560 1560 1561 1561 1561 1561 1560 1560 1560 1559 1559 1559 1558 1557 1557 1557 1556 1556 1557 1557 1558 1558 1558 1559
1527 1534 1536 1533 1529 1531 1535 1536 1534 1535 1536 1537 1538 1540 1542 1545 1547 1549 1551 1552 1554 1555 1557 1558 1559 1560 1561 1561 1561 1561 1561 1561 1561 1561 1560 1560 1559 1559 1558 1558 1557 1557 1557 1557 1558 1558 1558 1559 1559
1528 1532 1533 1534 1531 1531 1536 1540 1537 1534 1535 1536 1537 1539 1540 1542 1545 1547 1550 1552 1553 1555 1557 1558 1559 1560 1561 1561 1561 1562 1562 1562 1562 1561 1561 1561 1560 1559 1559 1558 1558 1558 1558 1558 1558 1558 1559 1559 1559
1531 1525 1527 1530 1538 1543 1539 1551 1539 1534 1534 1534 1535 1536 1538 1541 1543 1545 1548 1550 1552 1554 1556 1557 1559 1560 1561 1561 1561 1562 1562 1562 1562 1562 1562 1561 1561 1560 1560 1559 1559 1558 1558 1558 1559 1559 1559 1559 1559
1525 1522 1526 1530 1536 1541 1540 1547 1541 1532 1533 1530 1530 1532 1535 1538 1540 1543 1546 1549 1551 1553 1555 1557 1558 1559 1560 1561 1562 1562 1562 1562 1562 1562 1562 1561 1561 1561 1560 1560 1559 1559 1559 1559 1559 1559 1559 1559 1559
1520 1525 1529 1534 1540 1549 1539 1545 1541 1532 1525 1523 1525 1528 1531 1535 1538 1541 1545 1548 1550 1552 1554 1556 1557 1559 1560 1561 1561 1562 1562 1563 1563 1562 1562 1562 1562 1561 1561 1561 1560 1560 1560 1560 1560 1560 1560 1560 1560
1523 1536 1549 1551 1554 1550 1534 1538 1533 1517 1513 1515 1518 1523 1527 1531 1535 1539 1542 1545 1548 1550 1553 1555 1557 1558 1559 1560 1561 1562 1562 1563 1563 1563 1563 1562 1562 1562 1561 1561 1561 1560 1560 1560 1561 1560 1560 1560 1560
1524 1533 1548 1555 1555 1547 1534 1536 1523 1508 1508 1510 1514 1519 1524 1528 1532 1535 1539 1542 1545 1548 1551 1553 1555 1557 1558 1559 1560 1561 1562 1562 1563 1563 1563 1562 1562 1562 1562 1562 1561 1561 1561 1561 1561 1561 1561 1561 1561
1524 1530 1529 1539 1541 1546 1540 1528 1516 1508 1508 1510 1514 1517 1521 1525 1528 1532 1536 1540 1543 1546 1549 1551 1553 1555 1557 1559 1560 1561 1561 1562 1562 1563 1563 1562 1562 1562 1562 1562 1562 1562 1561 1561 1561 1561 1561 1561 1561
1516 1521 1532 1538 1547 1552 1543 1534 1529 1516 1512 1511 1513 1515 1518 1522 1526 1529 1533 1537 1540 1544 1547 1550 1552 1554 1556 1557 1559 1560 1561 1561 1562 1562 1562 1562 1563 1563 1562 1562 1562 1562 1562 1562 1561 1561 1561 1561 1561
1519 1521 1527 1535 1538 1549 1552 1540 1512 1511 1509 1509 1510 1512 1514 1518 1522 1526 1530 1534 1538 1542 1545 1547 1550 1552 1554 1556 1557 1559 1560 1561 1561 1562 1562 1562 1562 1563 1563 1563 1562 1562 1562 1562 1562 1562 1561 1561 1561
1512 1516 1524 1536 1538 1539 1545 1537 1504 1505 1505 1506 1507 1510 1512 1515 1519 1523 1527 1532 1535 1539 1542 1545 1548 1550 1552 1554 1556 1558 1559 1560 1561 1561 1562 1562 1562 1562 1562 1563 1563 1562 1562 1562 1562 1562 1561 1561 1561